IABS R/B, 22916

Orbit data source: Space-Track

IABS R/B, 22916 is space debris in GEO originally from a launch on Sun, 28 Nov 1993 UTC launched from the Air Force Eastern Test Range (AFETR). Debris objects in space refer to the collection of defunct objects orbiting the Earth. Examples of debris include non-operational satellites, rocket bodies, and fragments generated from explosions, collisions, or faulty payload assembly.

Loading next visibility...
Identifier
22916, 1993-074B
Orbit
GEO
Country
Flag of USUS
Related business
Manufacturer
MM/Valley Forge
Mission
Spacecraft
Bus & Motor
R-4D, R-4D-12 X2
Mass
270 kg wet, 270 kg dry
Launch date (UTC)
1993-11-28 (32 years ago)
Launch vehicle
Unknown
Launch site
Air Force Eastern Test Range (AFETR)
Object type
Payload
Rocket body
Debris
Shape & HBR
Cyl, 1.4 m
Radar Cross Section
4.851 m²

Expand to show TLE details & history
Last TLE update: 2 days ago

TLE from 2 days ago
0 IABS R/B
1 22916U 93074B   25351.95985627 -.00000158  00000-0  00000-0 0  9995
2 22916  13.9154 343.3735 0057900  99.7209 260.9318  0.99981651 24092
Epoch: 2025-12-17T23:02Z
TLE epoch observation values (Epoch: 2025-12-17T23:02:11.581Z)
Latitude
0.00001°
Longitude
-89.01758°
Altitude
35,907.791 km
Speed
3.069 km/s
True Right ascension
22h 53m 24s
True Declination
0° 00' 00"
Sunlit
Object was in daylight at epoch
Visualization orbit readout
Latitude
Unknown
Longitude
Unknown
Altitude
Unknown
Speed
Unknown
Apparent Right ascension
Unknown
Apparent Declination
Unknown
Sunlit
N/A
Visualization observer readout
Local Sidereal Time
13:57:12
Azimuth
Unknown
Elevation
Unknown
Doppler factor
Unknown
Orbital elements
Apogee altitude
36,113.716 km
Perigee altitude
35,624.493 km
Semi-major axis
42,247.242 km
Eccentricity
0.00579
Inclination
13.9154°
RAAN
343.3735°
Arg. of periapsis
99.7209°
True anomaly
260.27737°
Mean anomaly
260.9318°
Eccentric anomaly
260.60451°
Mean motion
0.24995 °/min
Orbital period
1,440.31 mins
BSTAR
0
Loading maneuver chart data...
Computing Atmospheric mass density...
Loading historical data...
Loading historical data...
Loading historical data...
Loading historical data...
Loading historical data...
Loading historical data...
Loading historical data...
Other satellites on launch #74 in the year 1993 (1993-11-28 UTC)

Documentation

Showing up to 5 results
|